Miscellaneous Local Product
Issued by NWS Hastings, NE

Home | Current Version | Previous Version | Text Only | Print | Product List | Glossary Off
Versions: 1 2 3 4 5 6 7 8 9 10 11 12 13 14 15 16 17 18 19 20 21 22 23 24 25 26 27 28 29 30 31 32 33 34 35 36 37 38 39 40 41 42 43 44 45 46 47 48 49 50

000
AXUS43 KGID 272102
MISGRI

GID CWA HOURLY WEATHER ROUNDUP
NATIONAL WEATHER SERVICE HASTINGS NE
400 PM CDT THU JUL 27 2017

NOTE: "FAIR" INDICATES FEW OR NO CLOUDS BELOW 12,000 FEET WITH NO
SIGNIFICANT WEATHER AND/OR OBSTRUCTIONS TO VISIBILITY.

...SOUTH CENTRAL NEBRASKA...

CITY           SKY/WX    TMP DP  RH WIND       PRES   REMARKS
GRAND ISLAND   SUNNY     81  61  50 N9        30.09F
HASTINGS       SUNNY     81  61  50 N7        30.09F
KEARNEY        SUNNY     81  63  54 E9        30.09F
ORD            PTSUNNY   84  58  40 NE8       30.08F
YORK           SUNNY     81  64  57 NE7G16    30.07F
AURORA         SUNNY     80  62  55 N8        30.08S
LEXINGTON      SUNNY     82  60  48 E5        30.10F
HOLDREGE       SUNNY     79  59  49 NE6       30.09F
HEBRON         MOSUNNY   83  63  49 N8        30.05S

...NEBRASKA PANHANDLE...

CITY           SKY/WX    TMP DP  RH WIND       PRES   REMARKS
CHADRON        NOT AVBL
ALLIANCE       MOSUNNY   84  62  47 SE21G29   30.11F
SCOTTSBLUFF    SUNNY     86  66  51 E22G29    30.07F
SIDNEY         MOSUNNY   86  60  41 S17       30.14F

...WESTERN AND NORTH CENTRAL NEBRASKA...

CITY           SKY/WX    TMP DP  RH WIND       PRES   REMARKS
VALENTINE      CLOUDY    86  50  28 SE10      30.11F
AINSWORTH      PTSUNNY   80  58  47 NE8       30.13F
ONEILL         PTSUNNY   78  60  53 E8        30.11F
BROKEN BOW     MOSUNNY   84  56  38 N6        30.11F
IMPERIAL       PTSUNNY   85  60  42 MISG      30.12F
NORTH PLATTE   MOSUNNY   88  49  25 VRB6      30.09F
MCCOOK         PTSUNNY   85  60  42 VRB6      30.09F

...EASTERN NEBRASKA...

CITY           SKY/WX    TMP DP  RH WIND       PRES   REMARKS
NORFOLK        CLOUDY    81  59  47 NE12      30.08S
SO SIOUX CITY  MOSUNNY   85  60  42 N8G16     30.04F
TEKAMAH        SUNNY     84  61  45 NE12      30.03F
COLUMBUS       CLOUDY    81  64  56 NE8G16    30.07F
ALBION         CLOUDY    82  64  53 E3        30.09F
OMAHA EPPLEY   MOSUNNY   84  62  47 NE10      30.03S
OFFUTT AFB     MOSUNNY   85  63  47 NE10      30.02F
MILLARD        MOSUNNY   84  64  50 N6        30.03S
LINCOLN        SUNNY     84  64  50 NE8       30.05S
NEBRASKA CITY  MOSUNNY   82  67  60 N7        30.02F
BEATRICE       CLOUDY    83  66  56 N9        30.03F
FALLS CITY     CLOUDY    85  71  63 N9        29.98F HX  90

...NORTHERN KANSAS...

CITY           SKY/WX    TMP DP  RH WIND       PRES   REMARKS
GOODLAND       CLOUDY    81  64  56 E3        30.13F
HILL CITY      PTSUNNY   87  65  47 NE8       30.06F
NORTON         CLEAR     88  55  33 NE6       30.08S
PHILLIPSBURG   SUNNY     88  59  37 NE5       30.05F
SMITH CENTER     N/A     82  66  57 NE8       30.05F
HAYS           CLOUDY    84  66  54 NE10      30.04F
RUSSELL        PTSUNNY   86  65  49 NE14      30.01F
CONCORDIA      MOSUNNY   85  68  56 N13       30.02F
SALINA         MOSUNNY   87  68  52 NE15      29.99F HX  90
TOPEKA         MOSUNNY   86  75  69 N8        29.95F HX  95



USA.gov is the U.S. government's official web portal to all federal, state and local government web resources and services.